Location: Caltech
(34.1382°N, 118.1253°W)
Time: 04:58:42
(UTC-07:00)

CZ-2C R/B - Visible Passes

Search period start: 23 July 2014 00:00
Search period end: 02 August 2014 00:00
Orbit: 669 x 788 km, 98.1° (Epoch: 23 July)

Date Brightness Start Highest point End Pass type
(mag) Time Alt. Az. Time Alt. Az. Time Alt. Az.
23 Jul 4.4 20:55:16 10° SSW 20:59:03 25° W 21:02:48 10° NW visible
25 Jul 4.6 20:58:42 10° SSW 21:02:19 23° W 21:05:55 10° NW visible
27 Jul 4.7 21:02:09 10° SW 21:05:35 21° W 21:09:00 10° NW visible
29 Jul 4.8 21:05:37 10° SW 21:08:50 19° W 21:12:04 10° NW visible
30 Jul 2.7 20:16:37 10° S 20:21:09 66° WSW 20:25:42 10° NNW visible
31 Jul 4.9 21:09:07 10° SW 21:12:06 17° W 21:15:06 10° NW visible
01 Aug 2.9 20:19:54 10° S 20:24:23 60° W 20:28:54 10° NNW visible
